EN

Hourly Weather Tokchin

Today, 17 April, Saturday

Time Temperature Precipitation Wind Pressure Humidity
00:00 +1°C° 0 mm 2 mps 700 mmHg 35%
01:00 +1°C° 0 mm 2 mps 700 mmHg 37%
02:00 -1°C° 0 mm 2 mps 700 mmHg 39%
03:00 -1°C° 0 mm 2 mps 700 mmHg 40%
04:00 -1°C° 0 mm 2 mps 700 mmHg 41%
05:00 -2°C° 0 mm 3 mps 700 mmHg 43%
06:00 0°C° 0 mm 3 mps 700 mmHg 38%
07:00 +2°C° 0 mm 3 mps 700 mmHg 34%
08:00 +4°C° 0 mm 3 mps 700 mmHg 29%
09:00 +6°C° 0 mm 4 mps 699 mmHg 27%
10:00 +10°C° 0 mm 4 mps 699 mmHg 24%
11:00 +12°C° 0 mm 4 mps 698 mmHg 21%
12:00 +13°C° 0 mm 4 mps 697 mmHg 19%
13:00 +14°C° 0 mm 5 mps 697 mmHg 18%
14:00 +16°C° 0 mm 5 mps 696 mmHg 17%
15:00 +16°C° 0 mm 5 mps 696 mmHg 17%
16:00 +16°C° 0 mm 5 mps 695 mmHg 17%
17:00 +16°C° 0 mm 5 mps 694 mmHg 17%
18:00 +15°C° 0 mm 4 mps 694 mmHg 20%
19:00 +13°C° 0 mm 4 mps 694 mmHg 23%
20:00 +11°C° 0 mm 3 mps 693 mmHg 27%
21:00 +10°C° 0 mm 3 mps 693 mmHg 30%
22:00 +9°C° 0 mm 2 mps 693 mmHg 33%
23:00 +8°C° 0 mm 2 mps 692 mmHg 36%

Tomorrow, 18 April, Sunday

Time Temperature Precipitation Wind Pressure Humidity
00:00 +8°C° 0 mm 2 mps 692 mmHg 38%
01:00 +7°C° 0 mm 2 mps 692 mmHg 40%
02:00 +8°C° 0 mm 1 mps 691 mmHg 41%
03:00 +8°C° 0 mm 1 mps 691 mmHg 43%
04:00 +7°C° 0 mm 1 mps 691 mmHg 45%
05:00 +7°C° 0 mm 1 mps 691 mmHg 47%
06:00 +7°C° 0 mm 2 mps 691 mmHg 44%
07:00 +9°C° 0 mm 2 mps 691 mmHg 40%
08:00 +11°C° 0 mm 3 mps 692 mmHg 37%
09:00 +10°C° 0 mm 6 mps 693 mmHg 36%
10:00 +10°C° 0 mm 8 mps 693 mmHg 36%
11:00 +11°C° 0 mm 11 mps 694 mmHg 35%
12:00 +11°C° 0 mm 11 mps 695 mmHg 31%
13:00 +11°C° 0 mm 11 mps 695 mmHg 28%
14:00 +11°C° 0 mm 11 mps 695 mmHg 24%
15:00 +9°C° 0 mm 11 mps 696 mmHg 21%
16:00 +8°C° 0 mm 11 mps 697 mmHg 18%
17:00 +7°C° 0 mm 11 mps 697 mmHg 15%
18:00 +5°C° 0 mm 10 mps 698 mmHg 15%
19:00 +2°C° 0 mm 9 mps 699 mmHg 15%
20:00 0°C° 0 mm 8 mps 701 mmHg 15%
21:00 -1°C° 0 mm 7 mps 701 mmHg 17%
22:00 -2°C° 0 mm 6 mps 702 mmHg 18%
23:00 -2°C° 0 mm 5 mps 702 mmHg 19%

Day after tomorrow, 19 April, Monday

Time Temperature Precipitation Wind Pressure Humidity
00:00 -3°C° 0 mm 4 mps 703 mmHg 21%
01:00 -4°C° 0 mm 3 mps 703 mmHg 24%
02:00 -3°C° 0 mm 2 mps 704 mmHg 26%
03:00 -4°C° 0 mm 2 mps 704 mmHg 28%
04:00 -3°C° 0 mm 1 mps 704 mmHg 29%
05:00 -3°C° 0 mm 1 mps 704 mmHg 31%
06:00 -2°C° 0 mm 1 mps 705 mmHg 28%
07:00 -1°C° 0 mm 1 mps 705 mmHg 26%
08:00 0°C° 0 mm 1 mps 705 mmHg 23%
09:00 +1°C° 0 mm 2 mps 705 mmHg 21%
10:00 +2°C° 0 mm 2 mps 705 mmHg 18%
11:00 +4°C° 0 mm 2 mps 704 mmHg 16%
12:00 +4°C° 0 mm 3 mps 704 mmHg 16%
13:00 +7°C° 0 mm 3 mps 703 mmHg 16%
14:00 +9°C° 0 mm 3 mps 702 mmHg 16%
15:00 +10°C° 0 mm 3 mps 701 mmHg 16%
16:00 +11°C° 0 mm 3 mps 701 mmHg 17%
17:00 +12°C° 0 mm 3 mps 700 mmHg 18%
18:00 +10°C° 0 mm 3 mps 700 mmHg 20%
19:00 +8°C° 0 mm 4 mps 700 mmHg 22%
20:00 +6°C° 0 mm 4 mps 700 mmHg 25%
21:00 +6°C° 0 mm 4 mps 699 mmHg 25%
22:00 +5°C° 0 mm 5 mps 699 mmHg 25%
23:00 +5°C° 0 mm 5 mps 699 mmHg 24%

20 April, Tuesday

Time Temperature Precipitation Wind Pressure Humidity
00:00 +5°C° 0 mm 5 mps 698 mmHg 26%
01:00 +3°C° 0 mm 5 mps 698 mmHg 27%
02:00 +3°C° 0 mm 5 mps 697 mmHg 28%
03:00 +4°C° 0 mm 4 mps 697 mmHg 28%
04:00 +3°C° 0 mm 4 mps 697 mmHg 28%
05:00 +3°C° 0 mm 3 mps 696 mmHg 28%
06:00 +5°C° 0 mm 3 mps 696 mmHg 26%
07:00 +7°C° 0 mm 3 mps 696 mmHg 24%
08:00 +8°C° 0 mm 4 mps 696 mmHg 22%
09:00 +12°C° 0 mm 4 mps 696 mmHg 21%
10:00 +15°C° 0 mm 5 mps 695 mmHg 20%
11:00 +19°C° 0 mm 5 mps 695 mmHg 19%
12:00 +20°C° 0 mm 6 mps 694 mmHg 17%
13:00 +21°C° 0 mm 6 mps 694 mmHg 15%
14:00 +22°C° 0 mm 6 mps 694 mmHg 13%
15:00 +21°C° 0 mm 6 mps 694 mmHg 16%
16:00 +20°C° 0 mm 7 mps 694 mmHg 20%
17:00 +20°C° 0 mm 7 mps 694 mmHg 23%
18:00 +16°C° 0 mm 5 mps 693 mmHg 30%
19:00 +14°C° 0 mm 3 mps 693 mmHg 38%
20:00 +12°C° 0 mm 0 mps 693 mmHg 45%
21:00 +11°C° 0 mm 0 mps 693 mmHg 45%
22:00 +12°C° 0 mm 1 mps 693 mmHg 46%
23:00 +11°C° 0 mm 1 mps 693 mmHg 46%

21 April, Wednesday

Time Temperature Precipitation Wind Pressure Humidity
00:00 +11°C° 0 mm 1 mps 693 mmHg 47%
01:00 +10°C° 0 mm 1 mps 693 mmHg 47%
02:00 +10°C° 0 mm 1 mps 693 mmHg 48%
03:00 +9°C° 0 mm 1 mps 693 mmHg 50%
04:00 +9°C° 0 mm 1 mps 693 mmHg 51%
05:00 +7°C° 0 mm 2 mps 693 mmHg 53%
06:00 +10°C° 0 mm 1 mps 693 mmHg 49%
07:00 +11°C° 0 mm 1 mps 694 mmHg 46%
08:00 +12°C° 0 mm 1 mps 694 mmHg 43%
09:00 +14°C° 0 mm 1 mps 694 mmHg 39%
10:00 +16°C° 0 mm 1 mps 694 mmHg 34%
11:00 +19°C° 0 mm 1 mps 694 mmHg 30%
12:00 +19°C° 0 mm 2 mps 694 mmHg 27%
13:00 +21°C° 0 mm 2 mps 694 mmHg 25%
14:00 +22°C° 0 mm 3 mps 694 mmHg 23%
15:00 +22°C° 0 mm 4 mps 694 mmHg 23%
16:00 +21°C° 0 mm 5 mps 694 mmHg 23%
17:00 +21°C° 0 mm 6 mps 694 mmHg 24%
18:00 +19°C° 0 mm 6 mps 694 mmHg 28%
19:00 +16°C° 0 mm 5 mps 695 mmHg 33%
20:00 +14°C° 0 mm 5 mps 695 mmHg 37%
21:00 +11°C° 0 mm 6 mps 696 mmHg 42%
22:00 +9°C° 0 mm 7 mps 697 mmHg 48%
23:00 +6°C° 0 mm 8 mps 698 mmHg 53%

22 April, Thursday

Time Temperature Precipitation Wind Pressure Humidity
00:00 +5°C° 0 mm 7 mps 698 mmHg 57%
01:00 +4°C° 0 mm 6 mps 699 mmHg 60%
02:00 +3°C° 0 mm 5 mps 699 mmHg 63%
03:00 +3°C° 0 mm 6 mps 700 mmHg 67%
04:00 +2°C° 0 mm 6 mps 701 mmHg 70%
05:00 0°C° 0 mm 7 mps 701 mmHg 73%
06:00 +2°C° 0 mm 6 mps 702 mmHg 71%
07:00 +2°C° 0 mm 6 mps 702 mmHg 69%
08:00 +2°C° 0 mm 6 mps 703 mmHg 68%
09:00 +4°C° 0 mm 6 mps 703 mmHg 58%
10:00 +7°C° 0 mm 6 mps 704 mmHg 49%
11:00 +9°C° 0 mm 6 mps 704 mmHg 40%
12:00 +9°C° 0 mm 6 mps 704 mmHg 37%
13:00 +10°C° 0 mm 5 mps 704 mmHg 33%
14:00 +12°C° 0 mm 5 mps 704 mmHg 30%
15:00 +12°C° 0 mm 5 mps 704 mmHg 28%
16:00 +12°C° 0 mm 5 mps 705 mmHg 27%
17:00 +13°C° 0 mm 5 mps 705 mmHg 25%
18:00 +10°C° 0 mm 5 mps 705 mmHg 27%
19:00 +10°C° 0 mm 4 mps 706 mmHg 29%
20:00 +8°C° 0 mm 4 mps 706 mmHg 31%
21:00 +7°C° 0 mm 4 mps 707 mmHg 32%
22:00 +6°C° 0 mm 4 mps 707 mmHg 34%
23:00 +6°C° 0 mm 4 mps 708 mmHg 35%
Show more

We Need Your Consent

Meteoprog and our Service Providers may store and access personal data such as cookies, device identifiers or other similar technologies on your device and process such data to personalise content and ads, as well as provide social media features and to analyse the traffic.

  • Store and/or access information on your device

    Cookies, device identifiers or other information can be stored or accessed on your device for the purposes indicated above.

  • Personalised ads and content, ad and content measurement, audience insights, and products development

    Ads and content can be personalised based on a profile. More data can be added to better personalise ads and content. Ad and content performance can be measured. Insights about the audience who saw the ads and content can be derived. Such data can be used to develop or improve user’s experience, systems and software.

By clicking ‘I Agree’ you will allow the use of indicated cookies, device identifiers, web beacons or other similar technologies. Your settings can be changed in the browser on your device.

For certain purposes, legitimate interests may be relied on, rather than consent. You can read more about this in our Privacy and Cookie Policy.